カタログに戻る

COSMOS 1900 DEB

運用中LEO
NORAD 43499·DEBRIS·🇷🇺 Russia

打ち上げ Dec 12, 1987 から Baikonur Cosmodrome

Loading…

次のパス (今後24時間)

TLE

最新Source: Space-Track

元期: Sep 14, 2026, 03:39 UTC

1 43499U 87101D   26257.15234351  .00000336  00000-0  91221-4 0  9993
2 43499  66.0812  97.9943 0028403  18.0246 342.1862 14.60294112607732

AllMySatでCOSMOS 1900 DEBをリアルタイム追跡

Download on the App Store